Time,TemperatureF,DewpointF,PressureIn,WindDirection,WindDirectionDegrees,WindSpeedMPH,WindSpeedGustMPH,Humidity,HourlyPrecipIn,Conditions,Clouds,dailyrainin,SoftwareType,DateUTC
2013-07-01 00:00:00,58.8,23.1,30.37,SW,222,0.0,0.0,25,0.00,,---,0.00,VWS V14.01,2013-07-01 06:00:00,
2013-07-01 00:05:00,58.1,22.5,30.37,South,171,2.7,3.1,25,0.00,,---,0.00,VWS V14.01,2013-07-01 06:05:00,
2013-07-01 00:10:00,57.6,22.0,30.37,SSE,159,0.0,4.9,25,0.00,,---,0.00,VWS V14.01,2013-07-01 06:10:00,
2013-07-01 00:15:00,57.4,21.9,30.37,SSW,200,0.0,0.0,25,0.00,,---,0.00,VWS V14.01,2013-07-01 06:15:00,
2013-07-01 00:20:00,57.4,21.9,30.37,SSW,212,5.4,6.3,25,0.00,,---,0.00,VWS V14.01,2013-07-01 06:20:00,
2013-07-01 00:25:00,57.0,22.5,30.37,WSW,247,4.0,4.9,26,0.00,,---,0.00,VWS V14.01,2013-07-01 06:25:00,
2013-07-01 00:30:00,56.5,22.0,30.37,South,173,3.6,5.4,26,0.00,,---,0.00,VWS V14.01,2013-07-01 06:30:00,
2013-07-01 00:35:00,55.9,22.5,30.37,SSW,201,5.4,5.4,27,0.00,,---,0.00,VWS V14.01,2013-07-01 06:35:00,
2013-07-01 00:40:00,55.6,22.1,30.37,SSW,205,2.7,4.9,27,0.00,,---,0.00,VWS V14.01,2013-07-01 06:40:00,
2013-07-01 00:45:00,55.4,22.0,30.37,SSW,197,0.0,0.0,27,0.00,,---,0.00,VWS V14.01,2013-07-01 06:45:00,
2013-07-01 00:50:00,55.4,22.0,30.37,South,173,0.0,4.0,27,0.00,,---,0.00,VWS V14.01,2013-07-01 06:50:00,
2013-07-01 00:55:00,55.4,22.0,30.40,SSW,203,4.0,4.0,27,0.00,,---,0.00,VWS V14.01,2013-07-01 06:55:00,
2013-07-01 01:00:00,55.2,22.7,30.40,South,178,4.0,5.4,28,0.00,,---,0.00,VWS V14.01,2013-07-01 07:00:00,
2013-07-01 01:05:00,55.0,22.5,30.40,SW,216,3.1,5.8,28,0.00,,---,0.00,VWS V14.01,2013-07-01 07:05:00,
2013-07-01 01:10:00,55.0,22.5,30.37,SW,228,5.4,5.4,28,0.00,,---,0.00,VWS V14.01,2013-07-01 07:10:00,
2013-07-01 01:15:00,54.7,22.2,30.37,SSW,199,2.2,4.0,28,0.00,,---,0.00,VWS V14.01,2013-07-01 07:15:00,
2013-07-01 01:20:00,54.5,22.1,30.37,South,185,0.0,0.0,28,0.00,,---,0.00,VWS V14.01,2013-07-01 07:20:00,
2013-07-01 01:25:00,54.3,21.9,30.40,SSW,193,0.0,0.0,28,0.00,,---,0.00,VWS V14.01,2013-07-01 07:25:00,
2013-07-01 01:30:00,54.1,22.6,30.40,South,180,4.0,5.8,29,0.00,,---,0.00,VWS V14.01,2013-07-01 07:30:00,
2013-07-01 01:35:00,54.1,22.6,30.40,South,189,2.7,3.6,29,0.00,,---,0.00,VWS V14.01,2013-07-01 07:35:00,
2013-07-01 01:40:00,54.1,22.6,30.37,South,189,4.0,4.9,29,0.00,,---,0.00,VWS V14.01,2013-07-01 07:40:00,
2013-07-01 01:45:00,54.0,23.2,30.37,SSW,197,5.4,6.3,30,0.00,,---,0.00,VWS V14.01,2013-07-01 07:45:00,
2013-07-01 01:50:00,54.0,23.2,30.37,South,181,0.0,0.0,30,0.00,,---,0.00,VWS V14.01,2013-07-01 07:50:00,
2013-07-01 01:55:00,54.1,23.4,30.37,SSW,203,5.8,8.1,30,0.00,,---,0.00,VWS V14.01,2013-07-01 07:55:00,
2013-07-01 02:00:00,54.0,23.2,30.37,South,183,4.0,6.3,30,0.00,,---,0.00,VWS V14.01,2013-07-01 08:00:00,
2013-07-01 02:05:00,53.8,23.1,30.37,SW,231,3.6,4.0,30,0.00,,---,0.00,VWS V14.01,2013-07-01 08:05:00,
2013-07-01 02:10:00,53.6,23.7,30.37,SW,231,5.4,5.4,31,0.00,,---,0.00,VWS V14.01,2013-07-01 08:10:00,
2013-07-01 02:15:00,53.1,24.0,30.37,South,170,4.0,5.4,32,0.00,,---,0.00,VWS V14.01,2013-07-01 08:15:00,
2013-07-01 02:20:00,52.9,23.9,30.37,South,180,2.7,4.9,32,0.00,,---,0.00,VWS V14.01,2013-07-01 08:20:00,
2013-07-01 02:25:00,52.9,24.6,30.37,SW,219,3.1,4.0,33,0.00,,---,0.00,VWS V14.01,2013-07-01 08:25:00,
2013-07-01 02:30:00,52.7,24.4,30.37,SSW,207,3.1,5.4,33,0.00,,---,0.00,VWS V14.01,2013-07-01 08:30:00,
2013-07-01 02:35:00,52.5,24.3,30.37,SW,221,2.7,4.0,33,0.00,,---,0.00,VWS V14.01,2013-07-01 08:35:00,
2013-07-01 02:40:00,52.5,24.3,30.37,SSW,193,4.0,5.4,33,0.00,,---,0.00,VWS V14.01,2013-07-01 08:40:00,
2013-07-01 02:45:00,52.3,24.1,30.37,South,183,3.1,5.4,33,0.00,,---,0.00,VWS V14.01,2013-07-01 08:45:00,
2013-07-01 02:50:00,52.2,24.0,30.37,SW,216,5.4,5.4,33,0.00,,---,0.00,VWS V14.01,2013-07-01 08:50:00,
2013-07-01 02:55:00,52.0,25.2,30.37,SSW,211,5.4,8.1,35,0.00,,---,0.00,VWS V14.01,2013-07-01 08:55:00,
2013-07-01 03:00:00,51.8,25.0,30.37,SSW,209,3.6,5.8,35,0.00,,---,0.00,VWS V14.01,2013-07-01 09:00:00,
2013-07-01 03:05:00,51.8,25.0,30.37,SSE,158,0.0,4.0,35,0.00,,---,0.00,VWS V14.01,2013-07-01 09:05:00,
2013-07-01 03:07:00,52.0,25.2,30.37,SSE,166,4.0,4.0,35,0.00,,---,0.00,VWS V14.01,2013-07-01 09:07:00,
2013-07-01 03:12:00,52.3,24.8,30.37,South,182,3.1,4.0,34,0.00,,---,0.00,VWS V14.01,2013-07-01 09:12:00,
2013-07-01 03:17:00,52.3,24.8,30.37,WSW,248,5.4,8.1,34,0.00,,---,0.00,VWS V14.01,2013-07-01 09:17:00,
2013-07-01 03:22:00,51.8,25.7,30.37,SSW,193,3.6,8.1,36,0.00,,---,0.00,VWS V14.01,2013-07-01 09:22:00,
2013-07-01 03:27:00,51.3,25.2,30.37,South,179,3.1,4.0,36,0.00,,---,0.00,VWS V14.01,2013-07-01 09:27:00,
2013-07-01 03:32:00,51.1,25.1,30.37,SSW,201,3.1,3.6,36,0.00,,---,0.00,VWS V14.01,2013-07-01 09:32:00,
2013-07-01 03:37:00,51.1,25.1,30.37,South,181,2.7,5.8,36,0.00,,---,0.00,VWS V14.01,2013-07-01 09:37:00,
2013-07-01 03:42:00,51.1,25.1,30.37,SSW,202,5.4,5.8,36,0.00,,---,0.00,VWS V14.01,2013-07-01 09:42:00,
2013-07-01 03:47:00,50.9,25.6,30.37,SW,234,3.6,6.3,37,0.00,,---,0.00,VWS V14.01,2013-07-01 09:47:00,
2013-07-01 03:52:00,50.7,25.4,30.37,SSW,207,5.8,6.3,37,0.00,,---,0.00,VWS V14.01,2013-07-01 09:52:00,
2013-07-01 03:57:00,50.4,25.1,30.37,SE,140,2.7,6.3,37,0.00,,---,0.00,VWS V14.01,2013-07-01 09:57:00,
2013-07-01 04:02:00,51.1,25.7,30.37,SSW,202,3.1,4.0,37,0.00,,---,0.00,VWS V14.01,2013-07-01 10:02:00,
2013-07-01 04:07:00,51.1,25.1,30.37,SSW,212,5.8,8.3,36,0.00,,---,0.00,VWS V14.01,2013-07-01 10:07:00,
2013-07-01 04:12:00,50.4,25.1,30.37,SW,221,5.4,8.7,37,0.00,,---,0.00,VWS V14.01,2013-07-01 10:12:00,
2013-07-01 04:17:00,50.2,24.9,30.37,SW,223,5.4,5.8,37,0.00,,---,0.00,VWS V14.01,2013-07-01 10:17:00,
2013-07-01 04:22:00,49.8,24.6,30.37,SW,232,4.9,8.1,37,0.00,,---,0.00,VWS V14.01,2013-07-01 10:22:00,
2013-07-01 04:28:00,49.5,24.9,30.37,SSW,193,8.7,8.7,38,0.00,,---,0.00,VWS V14.01,2013-07-01 10:28:00,
2013-07-01 04:33:00,49.1,24.6,30.37,SSW,195,5.4,6.7,38,0.00,,---,0.00,VWS V14.01,2013-07-01 10:33:00,
2013-07-01 04:39:00,48.9,25.1,30.37,SW,216,4.0,6.3,39,0.00,,---,0.00,VWS V14.01,2013-07-01 10:39:00,
2013-07-01 04:42:00,48.9,25.1,30.37,SSW,213,3.1,6.3,39,0.00,,---,0.00,VWS V14.01,2013-07-01 10:42:00,
2013-07-01 04:47:00,48.9,25.1,30.37,SW,223,6.3,8.1,39,0.00,,---,0.00,VWS V14.01,2013-07-01 10:47:00,
2013-07-01 04:52:00,48.7,24.9,30.37,SSE,164,4.0,6.3,39,0.00,,---,0.00,VWS V14.01,2013-07-01 10:52:00,
2013-07-01 04:57:00,48.7,24.9,30.37,SSW,205,5.8,5.8,39,0.00,,---,0.00,VWS V14.01,2013-07-01 10:57:00,
2013-07-01 05:02:00,48.6,24.7,30.37,SSW,209,0.0,5.8,39,0.00,,---,0.00,VWS V14.01,2013-07-01 11:02:00,
2013-07-01 05:07:00,48.7,24.9,30.37,South,191,0.0,0.0,39,0.00,,---,0.00,VWS V14.01,2013-07-01 11:07:00,
2013-07-01 05:12:00,48.7,24.9,30.37,SSW,212,3.6,5.8,39,0.00,,---,0.00,VWS V14.01,2013-07-01 11:12:00,
2013-07-01 05:17:00,48.7,24.3,30.37,SSW,212,0.0,0.0,38,0.00,,---,0.00,VWS V14.01,2013-07-01 11:17:00,
2013-07-01 05:22:00,48.7,24.3,30.37,SSW,212,0.0,0.0,38,0.00,,---,0.00,VWS V14.01,2013-07-01 11:22:00,
2013-07-01 05:27:00,48.7,24.3,30.37,SSW,212,0.0,0.0,38,0.00,,---,0.00,VWS V14.01,2013-07-01 11:27:00,
2013-07-01 05:32:00,48.6,24.1,30.37,SSE,158,0.0,0.0,38,0.00,,---,0.00,VWS V14.01,2013-07-01 11:32:00,
2013-07-01 05:37:00,48.6,24.1,30.40,SSE,158,0.0,0.0,38,0.00,,---,0.00,VWS V14.01,2013-07-01 11:37:00,
2013-07-01 05:42:00,48.6,24.1,30.40,SSE,158,0.0,0.0,38,0.00,,---,0.00,VWS V14.01,2013-07-01 11:42:00,
2013-07-01 05:47:00,48.4,24.0,30.40,South,183,0.0,0.0,38,0.00,,---,0.00,VWS V14.01,2013-07-01 11:47:00,
2013-07-01 05:52:00,48.4,24.0,30.40,South,183,0.0,0.0,38,0.00,,---,0.00,VWS V14.01,2013-07-01 11:52:00,
2013-07-01 05:57:00,48.2,23.8,30.40,South,184,0.0,0.0,38,0.00,,---,0.00,VWS V14.01,2013-07-01 11:57:00,
2013-07-01 06:02:00,48.2,23.8,30.40,South,191,0.0,0.0,38,0.00,,---,0.00,VWS V14.01,2013-07-01 12:02:00,
2013-07-01 06:07:00,48.0,24.3,30.40,SSW,194,0.0,0.0,39,0.00,,---,0.00,VWS V14.01,2013-07-01 12:07:00,
2013-07-01 06:12:00,47.8,24.7,30.40,SW,215,0.0,0.0,40,0.00,,---,0.00,VWS V14.01,2013-07-01 12:12:00,
2013-07-01 06:17:00,47.5,24.4,30.40,SSW,210,4.0,5.8,40,0.00,,---,0.00,VWS V14.01,2013-07-01 12:17:00,
2013-07-01 06:22:00,47.3,23.6,30.40,South,184,0.0,0.0,39,0.00,,---,0.00,VWS V14.01,2013-07-01 12:22:00,
2013-07-01 06:27:00,47.3,23.6,30.40,SSW,194,0.0,0.0,39,0.00,,---,0.00,VWS V14.01,2013-07-01 12:27:00,
2013-07-01 06:32:00,47.1,24.1,30.40,SSW,206,4.0,4.0,40,0.00,,---,0.00,VWS V14.01,2013-07-01 12:32:00,
2013-07-01 06:37:00,47.1,24.1,30.40,SSW,199,4.0,4.0,40,0.00,,---,0.00,VWS V14.01,2013-07-01 12:37:00,
2013-07-01 06:42:00,47.1,24.6,30.40,South,185,0.0,3.1,41,0.00,,---,0.00,VWS V14.01,2013-07-01 12:42:00,
2013-07-01 06:47:00,46.9,24.5,30.40,SSW,198,3.6,4.0,41,0.00,,---,0.00,VWS V14.01,2013-07-01 12:47:00,
2013-07-01 06:52:00,46.8,24.9,30.40,SSW,200,2.7,3.6,42,0.00,,---,0.00,VWS V14.01,2013-07-01 12:52:00,
2013-07-01 06:57:00,46.8,24.3,30.40,SW,215,0.0,2.7,41,0.00,,---,0.00,VWS V14.01,2013-07-01 12:57:00,
2013-07-01 07:03:00,46.8,24.3,30.40,SW,219,4.0,5.4,41,0.00,,---,0.00,VWS V14.01,2013-07-01 13:03:00,
2013-07-01 07:08:00,46.6,24.7,30.40,South,172,3.1,5.4,42,0.00,,---,0.00,VWS V14.01,2013-07-01 13:08:00,
2013-07-01 07:13:00,46.4,24.6,30.40,SSW,212,5.4,7.6,42,0.00,,---,0.00,VWS V14.01,2013-07-01 13:13:00,
2013-07-01 07:18:00,46.4,24.6,30.40,SSW,211,6.3,6.3,42,0.00,,---,0.00,VWS V14.01,2013-07-01 13:18:00,
2013-07-01 07:23:00,46.4,25.1,30.37,SW,223,3.6,4.9,43,0.00,,---,0.00,VWS V14.01,2013-07-01 13:23:00,
2013-07-01 07:28:00,46.6,25.9,30.37,South,178,6.7,6.7,44,0.00,,---,0.00,VWS V14.01,2013-07-01 13:28:00,
2013-07-01 07:33:00,46.6,25.9,30.37,South,178,5.4,6.7,44,0.00,,---,0.00,VWS V14.01,2013-07-01 13:33:00,
2013-07-01 07:38:00,46.8,26.0,30.37,SSW,199,3.1,6.3,44,0.00,,---,0.00,VWS V14.01,2013-07-01 13:38:00,
2013-07-01 07:43:00,46.9,25.6,30.37,SSW,205,4.9,4.9,43,0.00,,---,0.00,VWS V14.01,2013-07-01 13:43:00,
2013-07-01 07:48:00,47.3,26.0,30.37,SSW,208,0.0,4.0,43,0.00,,---,0.00,VWS V14.01,2013-07-01 13:48:00,
2013-07-01 07:53:00,47.5,25.5,30.37,SSW,208,0.0,0.0,42,0.00,,---,0.00,VWS V14.01,2013-07-01 13:53:00,
2013-07-01 07:58:00,47.7,25.7,30.37,SSW,208,0.0,0.0,42,0.00,,---,0.00,VWS V14.01,2013-07-01 13:58:00,
2013-07-01 08:03:00,48.0,26.0,30.37,SSW,196,0.0,0.0,42,0.00,,---,0.00,VWS V14.01,2013-07-01 14:03:00,
2013-07-01 08:08:00,48.4,25.8,30.37,SSW,204,0.0,0.0,41,0.00,,---,0.00,VWS V14.01,2013-07-01 14:08:00,
2013-07-01 08:13:00,48.7,26.1,30.37,SSW,204,0.0,0.0,41,0.00,,---,0.00,VWS V14.01,2013-07-01 14:13:00,
2013-07-01 08:19:00,48.7,25.5,30.37,SSW,204,0.0,0.0,40,0.00,,---,0.00,VWS V14.01,2013-07-01 14:19:00,
2013-07-01 08:24:00,49.1,25.8,30.37,SSW,203,0.0,0.0,40,0.00,,---,0.00,VWS V14.01,2013-07-01 14:24:00,
2013-07-01 08:30:00,49.3,25.4,30.37,SSW,195,0.0,0.0,39,0.00,,---,0.00,VWS V14.01,2013-07-01 14:30:00,
2013-07-01 08:36:00,49.5,25.5,30.37,SSE,160,0.0,0.0,39,0.00,,---,0.00,VWS V14.01,2013-07-01 14:36:00,
2013-07-01 08:41:00,49.8,25.9,30.37,SE,134,0.0,0.0,39,0.00,,---,0.00,VWS V14.01,2013-07-01 14:41:00,
2013-07-01 08:47:00,50.0,25.4,30.37,East,95,0.0,0.0,38,0.00,,---,0.00,VWS V14.01,2013-07-01 14:47:00,
2013-07-01 08:52:00,50.2,25.6,30.37,ENE,66,0.0,0.0,38,0.00,,---,0.00,VWS V14.01,2013-07-01 14:52:00,
2013-07-01 08:57:00,50.7,25.4,30.37,ENE,65,0.0,0.0,37,0.00,,---,0.00,VWS V14.01,2013-07-01 14:57:00,
2013-07-01 09:02:00,51.1,25.7,30.37,ENE,65,0.0,0.0,37,0.00,,---,0.00,VWS V14.01,2013-07-01 15:02:00,
2013-07-01 09:08:00,51.6,26.2,30.37,ENE,65,0.0,0.0,37,0.00,,---,0.00,VWS V14.01,2013-07-01 15:08:00,
2013-07-01 09:13:00,52.3,26.9,30.37,ENE,71,0.0,0.0,37,0.00,,---,0.00,VWS V14.01,2013-07-01 15:13:00,
2013-07-01 09:18:00,52.9,26.7,30.37,ENE,70,0.0,0.0,36,0.00,,---,0.00,VWS V14.01,2013-07-01 15:18:00,
2013-07-01 09:23:00,53.1,26.8,30.37,ENE,70,0.0,0.0,36,0.00,,---,0.00,VWS V14.01,2013-07-01 15:23:00,
2013-07-01 09:29:00,53.6,27.3,30.37,ENE,70,0.0,0.0,36,0.00,,---,0.00,VWS V14.01,2013-07-01 15:29:00,
2013-07-01 09:34:00,54.3,28.0,30.37,ENE,70,0.0,0.0,36,0.00,,---,0.00,VWS V14.01,2013-07-01 15:34:00,
2013-07-01 09:40:00,54.9,27.8,30.37,WNW,290,0.0,0.0,35,0.00,,---,0.00,VWS V14.01,2013-07-01 15:40:00,
2013-07-01 09:46:00,55.6,27.0,30.37,NW,316,2.7,4.0,33,0.00,,---,0.00,VWS V14.01,2013-07-01 15:46:00,
2013-07-01 09:51:00,56.5,27.8,30.37,NW,312,0.0,0.0,33,0.00,,---,0.00,VWS V14.01,2013-07-01 15:51:00,
2013-07-01 09:58:00,57.0,25.1,30.37,NNW,331,0.0,0.0,29,0.00,,---,0.00,VWS V14.01,2013-07-01 15:58:00,
2013-07-01 10:03:00,57.9,25.0,30.37,WNW,287,4.0,4.0,28,0.00,,---,0.00,VWS V14.01,2013-07-01 16:03:00,
2013-07-01 10:08:00,58.6,24.8,30.37,NNW,335,3.1,5.4,27,0.00,,---,0.00,VWS V14.01,2013-07-01 16:08:00,
2013-07-01 10:14:00,59.2,24.3,30.37,NNE,18,0.0,0.0,26,0.00,,---,0.00,VWS V14.01,2013-07-01 16:14:00,
2013-07-01 10:19:00,59.7,24.8,30.37,North,0,0.0,0.0,26,0.00,,---,0.00,VWS V14.01,2013-07-01 16:19:00,
2013-07-01 10:25:00,60.4,24.5,30.37,WNW,293,0.0,0.0,25,0.00,,---,0.00,VWS V14.01,2013-07-01 16:25:00,
2013-07-01 10:30:00,61.0,24.0,30.37,ENE,60,0.0,4.0,24,0.00,,---,0.00,VWS V14.01,2013-07-01 16:30:00,
2013-07-01 10:35:00,61.9,24.7,30.37,NNE,31,4.0,4.0,24,0.00,,---,0.00,VWS V14.01,2013-07-01 16:35:00,
2013-07-01 10:42:00,62.8,24.5,30.37,NW,321,4.0,7.6,23,0.00,,---,0.00,VWS V14.01,2013-07-01 16:42:00,
2013-07-01 10:47:00,63.7,25.2,30.37,SW,233,2.7,5.4,23,0.00,,---,0.00,VWS V14.01,2013-07-01 16:47:00,
2013-07-01 10:53:00,64.4,22.5,30.37,NNW,337,4.0,8.1,20,0.00,,---,0.00,VWS V14.01,2013-07-01 16:53:00,
2013-07-01 10:58:00,65.5,23.4,30.37,WNW,295,3.6,12.3,20,0.00,,---,0.00,VWS V14.01,2013-07-01 16:58:00,
2013-07-01 11:04:00,66.0,23.8,30.37,NNW,331,0.0,5.4,20,0.00,,---,0.00,VWS V14.01,2013-07-01 17:04:00,
2013-07-01 11:09:00,66.7,24.4,30.35,NNW,327,4.0,5.4,20,0.00,,---,0.00,VWS V14.01,2013-07-01 17:09:00,
2013-07-01 11:15:00,67.3,24.9,30.35,WNW,300,2.7,10.5,20,0.00,,---,0.00,VWS V14.01,2013-07-01 17:15:00,
2013-07-01 11:21:00,68.2,21.7,30.35,West,266,3.6,8.3,17,0.00,,---,0.00,VWS V14.01,2013-07-01 17:21:00,
2013-07-01 11:26:00,69.1,22.5,30.35,North,10,6.3,11.0,17,0.00,,---,0.00,VWS V14.01,2013-07-01 17:26:00,
2013-07-01 11:31:00,69.8,23.1,30.35,NNE,22,3.1,4.0,17,0.00,,---,0.00,VWS V14.01,2013-07-01 17:31:00,
2013-07-01 11:36:00,70.5,23.6,30.35,West,271,5.4,7.6,17,0.00,,---,0.00,VWS V14.01,2013-07-01 17:36:00,
2013-07-01 11:42:00,71.1,24.1,30.35,ENE,72,5.4,8.3,17,0.00,,---,0.00,VWS V14.01,2013-07-01 17:42:00,
2013-07-01 11:47:00,71.8,23.2,30.35,ESE,118,4.9,9.6,16,0.00,,---,0.00,VWS V14.01,2013-07-01 17:47:00,
2013-07-01 11:53:00,72.5,23.8,30.35,WNW,303,5.8,5.8,16,0.00,,---,0.00,VWS V14.01,2013-07-01 17:53:00,
2013-07-01 11:59:00,73.4,24.5,30.35,NW,307,5.4,8.7,16,0.00,,---,0.00,VWS V14.01,2013-07-01 17:59:00,
2013-07-01 12:04:00,74.1,25.1,30.35,North,0,5.4,8.1,16,0.00,,---,0.00,VWS V14.01,2013-07-01 18:04:00,
2013-07-01 12:10:00,74.8,25.7,30.35,NNE,24,3.1,10.1,16,0.00,,---,0.00,VWS V14.01,2013-07-01 18:10:00,
2013-07-01 12:17:00,75.6,24.7,30.35,NE,55,4.9,7.6,15,0.00,,---,0.00,VWS V14.01,2013-07-01 18:17:00,
2013-07-01 12:22:00,76.3,25.3,30.35,NNE,28,4.0,7.6,15,0.00,,---,0.00,VWS V14.01,2013-07-01 18:22:00,
2013-07-01 12:28:00,76.6,25.6,30.35,NNW,343,7.6,8.3,15,0.00,,---,0.00,VWS V14.01,2013-07-01 18:28:00,
2013-07-01 12:33:00,77.2,26.0,30.35,NNW,329,3.1,11.9,15,0.00,,---,0.00,VWS V14.01,2013-07-01 18:33:00,
2013-07-01 12:39:00,77.7,26.4,30.35,NNW,332,10.1,10.1,15,0.00,,---,0.00,VWS V14.01,2013-07-01 18:39:00,
2013-07-01 12:45:00,78.3,26.9,30.35,NNW,332,4.0,8.7,15,0.00,,---,0.00,VWS V14.01,2013-07-01 18:45:00,
2013-07-01 12:50:00,78.8,27.3,30.35,SW,236,5.8,8.7,15,0.00,,---,0.00,VWS V14.01,2013-07-01 18:50:00,
2013-07-01 12:55:00,79.2,27.6,30.35,NNW,328,7.6,7.6,15,0.00,,---,0.00,VWS V14.01,2013-07-01 18:55:00,
2013-07-01 13:02:00,79.2,27.6,30.35,NNW,342,4.0,5.4,15,0.00,,---,0.00,VWS V14.01,2013-07-01 19:02:00,
2013-07-01 13:07:00,79.0,27.4,30.35,NNW,337,3.1,10.1,15,0.00,,---,0.00,VWS V14.01,2013-07-01 19:07:00,
2013-07-01 13:13:00,79.0,27.4,30.35,NW,307,3.1,5.8,15,0.00,,---,0.00,VWS V14.01,2013-07-01 19:13:00,
2013-07-01 13:18:00,78.8,27.3,30.35,NNW,340,4.5,8.3,15,0.00,,---,0.00,VWS V14.01,2013-07-01 19:18:00,
2013-07-01 13:24:00,79.2,27.6,30.35,NNW,348,3.1,7.2,15,0.00,,---,0.00,VWS V14.01,2013-07-01 19:24:00,
2013-07-01 13:30:00,78.6,27.1,30.35,NNW,342,3.6,5.8,15,0.00,,---,0.00,VWS V14.01,2013-07-01 19:30:00,
2013-07-01 13:35:00,78.1,26.7,30.35,NNE,13,2.7,6.3,15,0.00,,---,0.00,VWS V14.01,2013-07-01 19:35:00,
2013-07-01 13:40:00,79.0,27.4,30.35,NE,35,3.1,7.6,15,0.00,,---,0.00,VWS V14.01,2013-07-01 19:40:00,
2013-07-01 13:46:00,79.2,27.6,30.35,NNW,332,4.0,6.3,15,0.00,,---,0.00,VWS V14.01,2013-07-01 19:46:00,
2013-07-01 13:52:00,79.2,27.6,30.35,ENE,65,4.9,6.3,15,0.00,,---,0.00,VWS V14.01,2013-07-01 19:52:00,
2013-07-01 13:58:00,78.8,27.3,30.35,NE,48,4.0,8.7,15,0.00,,---,0.00,VWS V14.01,2013-07-01 19:58:00,
2013-07-01 14:03:00,79.3,27.7,30.35,North,353,3.1,5.8,15,0.00,,---,0.00,VWS V14.01,2013-07-01 20:03:00,
2013-07-01 14:08:00,79.9,28.1,30.32,NE,56,3.6,7.6,15,0.00,,---,0.00,VWS V14.01,2013-07-01 20:08:00,
2013-07-01 14:13:00,79.9,28.1,30.32,NE,43,3.1,4.0,15,0.00,,---,0.00,VWS V14.01,2013-07-01 20:13:00,
2013-07-01 14:19:00,79.7,28.0,30.32,NNW,346,5.8,5.8,15,0.00,,---,0.00,VWS V14.01,2013-07-01 20:19:00,
2013-07-01 14:24:00,78.6,27.1,30.32,NE,47,4.0,6.3,15,0.00,,---,0.00,VWS V14.01,2013-07-01 20:24:00,
2013-07-01 14:30:00,77.5,26.3,30.32,NE,48,0.0,6.3,15,0.00,,---,0.00,VWS V14.01,2013-07-01 20:30:00,
2013-07-01 14:35:00,77.7,26.4,30.32,North,0,3.1,5.8,15,0.00,,---,0.00,VWS V14.01,2013-07-01 20:35:00,
2013-07-01 14:41:00,78.8,27.3,30.32,East,97,3.6,5.8,15,0.00,,---,0.00,VWS V14.01,2013-07-01 20:41:00,
2013-07-01 14:46:00,80.2,28.4,30.32,NE,46,0.0,8.3,15,0.00,,---,0.00,VWS V14.01,2013-07-01 20:46:00,
2013-07-01 14:52:00,81.0,27.3,30.32,NE,41,4.5,4.9,14,0.00,,---,0.00,VWS V14.01,2013-07-01 20:52:00,
2013-07-01 14:58:00,82.0,28.2,30.32,North,0,7.6,7.6,14,0.00,,---,0.00,VWS V14.01,2013-07-01 20:58:00,
2013-07-01 15:03:00,82.9,28.9,30.32,North,357,4.0,6.3,14,0.00,,---,0.00,VWS V14.01,2013-07-01 21:03:00,
2013-07-01 15:09:00,83.7,29.5,30.32,NNW,335,4.0,7.6,14,0.00,,---,0.00,VWS V14.01,2013-07-01 21:09:00,
2013-07-01 15:15:00,84.2,28.1,30.32,NNE,23,6.3,6.3,13,0.00,,---,0.00,VWS V14.01,2013-07-01 21:15:00,
2013-07-01 15:20:00,84.6,28.4,30.32,North,7,3.6,11.0,13,0.00,,---,0.00,VWS V14.01,2013-07-01 21:20:00,
2013-07-01 15:26:00,85.3,28.9,30.32,North,0,3.1,7.6,13,0.00,,---,0.00,VWS V14.01,2013-07-01 21:26:00,
2013-07-01 15:31:00,86.4,29.8,30.32,North,353,2.7,8.7,13,0.00,,---,0.00,VWS V14.01,2013-07-01 21:31:00,
2013-07-01 15:36:00,86.9,30.2,30.32,NE,55,4.0,9.6,13,0.00,,---,0.00,VWS V14.01,2013-07-01 21:36:00,
2013-07-01 15:42:00,87.4,30.6,30.32,NE,39,8.1,10.1,13,0.00,,---,0.00,VWS V14.01,2013-07-01 21:42:00,
2013-07-01 15:47:00,87.8,30.9,30.32,NE,50,6.7,14.5,13,0.00,,---,0.00,VWS V14.01,2013-07-01 21:47:00,
2013-07-01 15:52:00,88.0,31.0,30.32,North,3,5.8,8.7,13,0.00,,---,0.00,VWS V14.01,2013-07-01 21:52:00,
2013-07-01 15:57:00,88.3,31.3,30.32,NNW,334,5.4,8.3,13,0.00,,---,0.00,VWS V14.01,2013-07-01 21:57:00,
2013-07-01 16:02:00,88.5,31.5,30.32,NW,307,5.4,8.7,13,0.00,,---,0.00,VWS V14.01,2013-07-01 22:02:00,
2013-07-01 16:08:00,88.7,31.6,30.32,NNW,327,5.8,9.2,13,0.00,,---,0.00,VWS V14.01,2013-07-01 22:08:00,
2013-07-01 16:13:00,89.2,32.0,30.32,NNW,339,6.3,8.1,13,0.00,,---,0.00,VWS V14.01,2013-07-01 22:13:00,
2013-07-01 16:19:00,89.6,30.3,30.32,NNW,337,3.1,10.1,12,0.00,,---,0.00,VWS V14.01,2013-07-01 22:19:00,
2013-07-01 16:25:00,89.6,30.3,30.32,NNE,19,4.9,8.7,12,0.00,,---,0.00,VWS V14.01,2013-07-01 22:25:00,
2013-07-01 16:30:00,89.1,31.9,30.32,NNE,23,3.6,7.6,13,0.00,,---,0.00,VWS V14.01,2013-07-01 22:30:00,
2013-07-01 16:37:00,88.7,31.6,30.32,NNW,337,5.4,8.1,13,0.00,,---,0.00,VWS V14.01,2013-07-01 22:37:00,
2013-07-01 16:43:00,88.7,31.6,30.32,NW,316,6.3,10.1,13,0.00,,---,0.00,VWS V14.01,2013-07-01 22:43:00,
2013-07-01 16:48:00,88.7,31.6,30.32,NNW,342,3.6,8.1,13,0.00,,---,0.00,VWS V14.01,2013-07-01 22:48:00,
2013-07-01 16:53:00,88.7,31.6,30.32,NE,45,5.8,8.7,13,0.00,,---,0.00,VWS V14.01,2013-07-01 22:53:00,
2013-07-01 16:59:00,88.5,31.5,30.32,NW,322,8.3,17.4,13,0.00,,---,0.00,VWS V14.01,2013-07-01 22:59:00,
2013-07-01 17:05:00,88.2,31.2,30.32,NE,42,5.8,9.2,13,0.00,,---,0.00,VWS V14.01,2013-07-01 23:05:00,
2013-07-01 17:11:00,88.2,31.2,30.32,North,0,6.7,12.3,13,0.00,,---,0.00,VWS V14.01,2013-07-01 23:11:00,
2013-07-01 17:16:00,88.0,31.0,30.32,NNW,328,7.6,8.3,13,0.00,,---,0.00,VWS V14.01,2013-07-01 23:16:00,
2013-07-01 17:22:00,88.5,31.5,30.32,NW,325,3.6,7.2,13,0.00,,---,0.00,VWS V14.01,2013-07-01 23:22:00,
2013-07-01 17:27:00,88.2,31.2,30.32,North,0,3.6,8.1,13,0.00,,---,0.00,VWS V14.01,2013-07-01 23:27:00,
2013-07-01 17:32:00,87.8,30.9,30.32,West,279,5.4,5.8,13,0.00,,---,0.00,VWS V14.01,2013-07-01 23:32:00,
2013-07-01 17:37:00,87.4,30.6,30.32,ESE,103,6.3,8.7,13,0.00,,---,0.00,VWS V14.01,2013-07-01 23:37:00,
2013-07-01 17:43:00,87.4,30.6,30.32,North,353,5.4,6.3,13,0.00,,---,0.00,VWS V14.01,2013-07-01 23:43:00,
2013-07-01 17:49:00,87.6,30.8,30.32,NNE,22,3.1,5.4,13,0.00,,---,0.00,VWS V14.01,2013-07-01 23:49:00,
2013-07-01 17:55:00,88.0,31.0,30.32,NNW,335,6.3,8.3,13,0.00,,---,0.00,VWS V14.01,2013-07-01 23:55:00,
2013-07-01 18:00:00,88.2,31.2,30.32,North,357,5.4,7.6,13,0.00,,---,0.00,VWS V14.01,2013-07-02 00:00:00,
2013-07-01 18:05:00,88.2,31.2,30.32,NNW,330,5.8,9.6,13,0.00,,---,0.00,VWS V14.01,2013-07-02 00:05:00,
2013-07-01 18:10:00,88.2,31.2,30.32,WNW,282,3.1,6.3,13,0.00,,---,0.00,VWS V14.01,2013-07-02 00:10:00,
2013-07-01 18:16:00,87.8,30.9,30.32,NNW,330,5.8,15.0,13,0.00,,---,0.00,VWS V14.01,2013-07-02 00:16:00,
2013-07-01 18:22:00,87.3,30.5,30.32,West,270,4.0,6.7,13,0.00,,---,0.00,VWS V14.01,2013-07-02 00:22:00,
2013-07-01 18:28:00,86.5,29.9,30.32,North,0,4.9,7.6,13,0.00,,---,0.00,VWS V14.01,2013-07-02 00:28:00,
2013-07-01 18:33:00,86.2,29.6,30.32,NNE,17,2.7,8.7,13,0.00,,---,0.00,VWS V14.01,2013-07-02 00:33:00,
2013-07-01 18:39:00,86.0,29.5,30.32,North,353,2.7,7.6,13,0.00,,---,0.00,VWS V14.01,2013-07-02 00:39:00,
2013-07-01 18:45:00,85.6,29.2,30.32,North,2,3.1,8.1,13,0.00,,---,0.00,VWS V14.01,2013-07-02 00:45:00,
2013-07-01 18:50:00,85.3,28.9,30.32,NNE,32,3.1,5.4,13,0.00,,---,0.00,VWS V14.01,2013-07-02 00:50:00,
2013-07-01 18:56:00,84.9,28.6,30.32,NNW,328,6.3,7.6,13,0.00,,---,0.00,VWS V14.01,2013-07-02 00:56:00,
2013-07-01 19:01:00,84.2,28.1,30.32,NNE,28,5.8,5.8,13,0.00,,---,0.00,VWS V14.01,2013-07-02 01:01:00,
2013-07-01 19:07:00,83.7,29.5,30.32,NNW,341,4.9,8.3,14,0.00,,---,0.00,VWS V14.01,2013-07-02 01:07:00,
2013-07-01 19:11:00,83.5,29.3,30.32,North,349,3.1,8.7,14,0.00,,---,0.00,VWS V14.01,2013-07-02 01:11:00,
2013-07-01 19:17:00,83.1,29.0,30.32,NE,48,6.3,7.2,14,0.00,,---,0.00,VWS V14.01,2013-07-02 01:17:00,
2013-07-01 19:22:00,82.8,28.8,30.32,NE,53,4.9,6.3,14,0.00,,---,0.00,VWS V14.01,2013-07-02 01:22:00,
2013-07-01 19:28:00,82.2,28.3,30.32,NNE,26,3.1,6.3,14,0.00,,---,0.00,VWS V14.01,2013-07-02 01:28:00,
2013-07-01 19:34:00,82.0,28.2,30.32,NNW,337,0.0,0.0,14,0.00,,---,0.00,VWS V14.01,2013-07-02 01:34:00,
2013-07-01 19:40:00,81.5,27.8,30.32,NW,305,3.1,4.9,14,0.00,,---,0.00,VWS V14.01,2013-07-02 01:40:00,
2013-07-01 19:45:00,81.1,27.5,30.32,NNW,343,0.0,0.0,14,0.00,,---,0.00,VWS V14.01,2013-07-02 01:45:00,
2013-07-01 19:50:00,80.6,27.0,30.32,NNW,336,0.0,4.0,14,0.00,,---,0.00,VWS V14.01,2013-07-02 01:50:00,
2013-07-01 19:55:00,79.9,28.1,30.32,North,357,2.2,4.5,15,0.00,,---,0.00,VWS V14.01,2013-07-02 01:55:00,
2013-07-01 20:01:00,79.3,27.7,30.32,North,350,0.0,5.4,15,0.00,,---,0.00,VWS V14.01,2013-07-02 02:01:00,
2013-07-01 20:06:00,78.8,27.3,30.32,NNE,16,0.0,0.0,15,0.00,,---,0.00,VWS V14.01,2013-07-02 02:06:00,
2013-07-01 20:11:00,78.3,26.9,30.32,North,353,0.0,0.0,15,0.00,,---,0.00,VWS V14.01,2013-07-02 02:11:00,
2013-07-01 20:17:00,77.7,26.4,30.32,NNW,337,0.0,0.0,15,0.00,,---,0.00,VWS V14.01,2013-07-02 02:17:00,
2013-07-01 20:22:00,77.4,26.1,30.35,NNE,16,0.0,0.0,15,0.00,,---,0.00,VWS V14.01,2013-07-02 02:22:00,
2013-07-01 20:27:00,77.0,25.9,30.35,NNE,21,0.0,0.0,15,0.00,,---,0.00,VWS V14.01,2013-07-02 02:27:00,
2013-07-01 20:32:00,76.6,25.6,30.35,NE,50,0.0,0.0,15,0.00,,---,0.00,VWS V14.01,2013-07-02 02:32:00,
2013-07-01 20:38:00,76.1,25.1,30.35,NE,56,0.0,0.0,15,0.00,,---,0.00,VWS V14.01,2013-07-02 02:38:00,
2013-07-01 20:44:00,75.7,24.9,30.35,NNW,343,0.0,0.0,15,0.00,,---,0.00,VWS V14.01,2013-07-02 02:44:00,
2013-07-01 20:50:00,75.2,24.4,30.35,East,92,0.0,0.0,15,0.00,,---,0.00,VWS V14.01,2013-07-02 02:50:00,
2013-07-01 20:55:00,74.8,25.7,30.35,East,81,0.0,0.0,16,0.00,,---,0.00,VWS V14.01,2013-07-02 02:55:00,
2013-07-01 21:00:00,74.7,25.5,30.35,North,10,0.0,0.0,16,0.00,,---,0.00,VWS V14.01,2013-07-02 03:00:00,
2013-07-01 21:05:00,74.1,25.1,30.35,East,86,0.0,0.0,16,0.00,,---,0.00,VWS V14.01,2013-07-02 03:05:00,
2013-07-01 21:11:00,73.8,24.8,30.35,East,86,0.0,0.0,16,0.00,,---,0.00,VWS V14.01,2013-07-02 03:11:00,
2013-07-01 21:17:00,73.4,24.5,30.35,East,86,0.0,0.0,16,0.00,,---,0.00,VWS V14.01,2013-07-02 03:17:00,
2013-07-01 21:23:00,72.9,20.9,30.35,NE,43,0.0,0.0,14,0.00,,---,0.00,VWS V14.01,2013-07-02 03:23:00,
2013-07-01 21:28:00,72.3,20.5,30.35,NNE,25,0.0,0.0,14,0.00,,---,0.00,VWS V14.01,2013-07-02 03:28:00,
2013-07-01 21:34:00,72.0,20.2,30.35,NNE,25,0.0,0.0,14,0.00,,---,0.00,VWS V14.01,2013-07-02 03:34:00,
2013-07-01 21:39:00,71.8,20.1,30.35,WNW,284,0.0,0.0,14,0.00,,---,0.00,VWS V14.01,2013-07-02 03:39:00,
2013-07-01 21:44:00,71.4,19.8,30.35,ENE,61,0.0,0.0,14,0.00,,---,0.00,VWS V14.01,2013-07-02 03:44:00,
2013-07-01 21:49:00,70.9,19.4,30.35,ENE,61,0.0,0.0,14,0.00,,---,0.00,VWS V14.01,2013-07-02 03:49:00,
2013-07-01 21:54:00,70.7,19.2,30.35,ENE,64,0.0,0.0,14,0.00,,---,0.00,VWS V14.01,2013-07-02 03:54:00,
2013-07-01 22:00:00,70.3,18.9,30.35,ENE,64,0.0,0.0,14,0.00,,---,0.00,VWS V14.01,2013-07-02 04:00:00,
2013-07-01 22:01:00,70.3,18.9,30.35,ENE,64,0.0,0.0,14,0.00,,---,0.00,VWS V14.01,2013-07-02 04:01:00,
2013-07-01 22:02:00,70.3,18.9,30.35,ENE,64,0.0,0.0,14,0.00,,---,0.00,VWS V14.01,2013-07-02 04:02:00,
2013-07-01 22:05:00,70.0,18.6,30.35,ENE,64,0.0,0.0,14,0.00,,---,0.00,VWS V14.01,2013-07-02 04:05:00,
2013-07-01 22:06:00,69.8,18.5,30.35,ENE,64,0.0,0.0,14,0.00,,---,0.00,VWS V14.01,2013-07-02 04:06:00,
2013-07-01 22:12:00,69.8,18.5,30.35,NE,47,0.0,0.0,14,0.00,,---,0.00,VWS V14.01,2013-07-02 04:12:00,
2013-07-01 22:17:00,69.3,19.7,30.35,NE,48,0.0,0.0,15,0.00,,---,0.00,VWS V14.01,2013-07-02 04:17:00,
2013-07-01 22:23:00,69.1,19.5,30.37,NE,48,0.0,0.0,15,0.00,,---,0.00,VWS V14.01,2013-07-02 04:23:00,
2013-07-01 22:28:00,68.9,19.4,30.37,NE,42,0.0,0.0,15,0.00,,---,0.00,VWS V14.01,2013-07-02 04:28:00,
2013-07-01 22:33:00,68.5,19.1,30.37,NE,42,0.0,0.0,15,0.00,,---,0.00,VWS V14.01,2013-07-02 04:33:00,
2013-07-01 22:38:00,68.2,18.8,30.37,NE,44,0.0,0.0,15,0.00,,---,0.00,VWS V14.01,2013-07-02 04:38:00,
2013-07-01 22:44:00,67.8,18.5,30.37,North,353,0.0,0.0,15,0.00,,---,0.00,VWS V14.01,2013-07-02 04:44:00,
2013-07-01 22:50:00,67.5,18.2,30.37,North,353,0.0,0.0,15,0.00,,---,0.00,VWS V14.01,2013-07-02 04:50:00,
2013-07-01 22:55:00,67.3,18.1,30.37,North,353,0.0,0.0,15,0.00,,---,0.00,VWS V14.01,2013-07-02 04:55:00,
2013-07-01 23:01:00,67.1,17.9,30.37,North,353,0.0,0.0,15,0.00,,---,0.00,VWS V14.01,2013-07-02 05:01:00,
2013-07-01 23:06:00,66.9,17.8,30.37,North,353,0.0,0.0,15,0.00,,---,0.00,VWS V14.01,2013-07-02 05:06:00,
2013-07-01 23:11:00,66.6,17.5,30.37,North,353,0.0,0.0,15,0.00,,---,0.00,VWS V14.01,2013-07-02 05:11:00,
2013-07-01 23:16:00,66.4,17.4,30.37,North,353,0.0,0.0,15,0.00,,---,0.00,VWS V14.01,2013-07-02 05:16:00,
2013-07-01 23:22:00,66.2,17.2,30.37,North,353,0.0,0.0,15,0.00,,---,0.00,VWS V14.01,2013-07-02 05:22:00,
2013-07-01 23:27:00,65.7,16.8,30.37,North,353,0.0,0.0,15,0.00,,---,0.00,VWS V14.01,2013-07-02 05:27:00,
2013-07-01 23:33:00,65.3,16.5,30.37,North,353,0.0,0.0,15,0.00,,---,0.00,VWS V14.01,2013-07-02 05:33:00,
2013-07-01 23:38:00,65.1,16.4,30.37,North,353,0.0,0.0,15,0.00,,---,0.00,VWS V14.01,2013-07-02 05:38:00,
2013-07-01 23:43:00,64.8,16.1,30.37,North,353,0.0,0.0,15,0.00,,---,0.00,VWS V14.01,2013-07-02 05:43:00,
2013-07-01 23:48:00,64.4,15.8,30.37,SSW,200,0.0,0.0,15,0.00,,---,0.00,VWS V14.01,2013-07-02 05:48:00,
2013-07-01 23:53:00,64.2,17.1,30.37,SSW,200,0.0,0.0,16,0.00,,---,0.00,VWS V14.01,2013-07-02 05:53:00,
2013-07-01 23:59:00,64.0,17.0,30.37,SSW,200,0.0,0.0,16,0.00,,---,0.00,VWS V14.01,2013-07-02 05:59:00,